AAA416 YSSY-YPAD

Flight info

Callsign AAA416
Flight time N/A
Altitude 32000
Route KADOM1/34L KADOM H44 MAXEM Q60 KAKLU H309 AD
Aircraft R722/M-SDFGRWY/S

Departure

Time 2026-04-30 10:28
Airport Sydney Kingsford Smith International Airport (YSSY)

Arrival

Time N/A
Airport Adelaide International Airport (YPAD)
Time Latitude Longitude Altitude Speed Heading
2026-04-30 09:58 -33.93112 151.16770 33 ft 0 kts 257°
2026-04-30 10:08 -33.93111 151.16772 33 ft 2 kts 257°
2026-04-30 10:09 -33.93105 151.16802 33 ft 4 kts 254°
2026-04-30 10:09 -33.93097 151.16832 33 ft 4 kts 249°
2026-04-30 10:09 -33.93086 151.16862 33 ft 4 kts 243°
2026-04-30 10:09 -33.93072 151.16889 33 ft 4 kts 229°
2026-04-30 10:10 -33.93052 151.16905 33 ft 4 kts 192°
2026-04-30 10:10 -33.93042 151.16905 33 ft 0 kts 167°
2026-04-30 10:15 -33.93047 151.16907 33 ft 4 kts 167°
2026-04-30 10:15 -33.93091 151.16919 33 ft 8 kts 167°
2026-04-30 10:15 -33.93156 151.16936 33 ft 11 kts 167°
2026-04-30 10:15 -33.93234 151.16958 33 ft 12 kts 164°
2026-04-30 10:16 -33.93304 151.17020 33 ft 13 kts 135°
2026-04-30 10:16 -33.93387 151.17074 33 ft 14 kts 167°
2026-04-30 10:16 -33.93487 151.17100 33 ft 16 kts 168°
2026-04-30 10:17 -33.93720 151.17159 32 ft 18 kts 168°
2026-04-30 10:17 -33.93889 151.17204 32 ft 0 kts 168°
2026-04-30 10:18 -33.93922 151.17212 32 ft 9 kts 168°
2026-04-30 10:18 -33.93990 151.17229 32 ft 11 kts 168°
2026-04-30 10:18 -33.94068 151.17249 32 ft 12 kts 168°
2026-04-30 10:19 -33.94260 151.17299 33 ft 15 kts 167°
2026-04-30 10:19 -33.94363 151.17327 34 ft 16 kts 167°
2026-04-30 10:19 -33.94472 151.17357 34 ft 17 kts 167°
2026-04-30 10:19 -33.94588 151.17385 34 ft 18 kts 169°
2026-04-30 10:20 -33.94713 151.17417 34 ft 19 kts 168°
2026-04-30 10:20 -33.94987 151.17488 33 ft 21 kts 168°
2026-04-30 10:20 -33.95134 151.17526 33 ft 22 kts 168°
2026-04-30 10:21 -33.95236 151.17553 32 ft 23 kts 168°
2026-04-30 10:21 -33.95444 151.17607 33 ft 23 kts 168°
2026-04-30 10:21 -33.95551 151.17635 33 ft 24 kts 168°
2026-04-30 10:21 -33.95704 151.17674 34 ft 20 kts 168°
2026-04-30 10:22 -33.95837 151.17717 33 ft 19 kts 149°
2026-04-30 10:22 -33.95885 151.17788 33 ft 0 kts 100°
2026-04-30 10:26 -33.95888 151.17832 32 ft 7 kts 89°
2026-04-30 10:27 -33.95875 151.17890 32 ft 7 kts 47°
2026-04-30 10:27 -33.95836 151.17908 32 ft 5 kts 356°
2026-04-30 10:27 -33.95769 151.17895 31 ft 24 kts 348°
2026-04-30 10:27 -33.95414 151.17806 32 ft 82 kts 347°
2026-04-30 10:28 -33.94659 151.17611 33 ft 136 kts 348°
2026-04-30 10:28 -33.93681 151.17348 402 ft 141 kts 350°
2026-04-30 10:28 -33.92733 151.17131 953 ft 139 kts 357°
2026-04-30 10:28 -33.91653 151.16877 987 ft 176 kts 348°
2026-04-30 10:29 -33.90423 151.16498 1308 ft 181 kts 350°
2026-04-30 10:29 -33.89243 151.16062 1790 ft 180 kts 335°
2026-04-30 10:29 -33.88197 151.15104 1707 ft 209 kts 332°
2026-04-30 10:29 -33.86747 151.14230 1768 ft 240 kts 333°
2026-04-30 10:30 -33.85426 151.12952 2445 ft 248 kts 320°
2026-04-30 10:30 -33.84110 151.11543 2980 ft 258 kts 323°
2026-04-30 10:30 -33.82663 151.10230 3570 ft 265 kts 332°
2026-04-30 10:30 -33.80917 151.09184 3527 ft 282 kts 326°
2026-04-30 10:31 -33.80071 151.07258 4153 ft 255 kts 285°
2026-04-30 10:31 -33.79715 151.05259 4492 ft 243 kts 282°
2026-04-30 10:31 -33.79486 151.03095 3811 ft 285 kts 277°
2026-04-30 10:31 -33.79274 151.00614 3267 ft 303 kts 278°
2026-04-30 10:32 -33.78999 150.98128 3227 ft 293 kts 281°
2026-04-30 10:32 -33.78723 150.95820 3743 ft 269 kts 280°
2026-04-30 10:32 -33.78457 150.93514 4282 ft 288 kts 279°
2026-04-30 10:32 -33.78189 150.91114 4848 ft 297 kts 279°
2026-04-30 10:33 -33.77910 150.88630 5395 ft 301 kts 279°
2026-04-30 10:33 -33.77624 150.86141 5955 ft 299 kts 279°
2026-04-30 10:33 -33.77341 150.83689 6502 ft 294 kts 278°
2026-04-30 10:33 -33.77068 150.81269 7036 ft 290 kts 278°
2026-04-30 10:34 -33.76792 150.78870 7557 ft 294 kts 278°
2026-04-30 10:34 -33.76503 150.76371 8111 ft 307 kts 278°
2026-04-30 10:34 -33.76208 150.73794 8681 ft 315 kts 278°
2026-04-30 10:34 -33.75908 150.71183 9246 ft 314 kts 278°
2026-04-30 10:35 -33.75612 150.68630 9801 ft 311 kts 278°
2026-04-30 10:35 -33.75316 150.66071 10354 ft 308 kts 278°
2026-04-30 10:35 -33.75022 150.63528 10858 ft 306 kts 278°
2026-04-30 10:35 -33.74730 150.61008 11378 ft 303 kts 278°
2026-04-30 10:36 -33.74431 150.58448 11875 ft 320 kts 278°
2026-04-30 10:36 -33.74108 150.55694 12273 ft 346 kts 279°
2026-04-30 10:36 -33.73762 150.52730 12690 ft 368 kts 279°
2026-04-30 10:36 -33.73403 150.49665 13108 ft 375 kts 279°
2026-04-30 10:37 -33.73040 150.46558 13514 ft 376 kts 279°
2026-04-30 10:37 -33.72675 150.43437 13911 ft 379 kts 280°
2026-04-30 10:37 -33.72302 150.40287 14295 ft 381 kts 280°
2026-04-30 10:37 -33.71931 150.37134 14643 ft 380 kts 279°
2026-04-30 10:38 -33.71559 150.33999 14989 ft 378 kts 279°
2026-04-30 10:38 -33.71204 150.30871 15339 ft 377 kts 277°
2026-04-30 10:38 -33.71172 150.27730 15692 ft 377 kts 268°
2026-04-30 10:38 -33.71461 150.24602 16052 ft 376 kts 262°
2026-04-30 10:39 -33.71859 150.21542 16409 ft 375 kts 263°
2026-04-30 10:39 -33.72142 150.18435 16771 ft 374 kts 266°
2026-04-30 10:39 -33.72346 150.15320 17145 ft 373 kts 265°
2026-04-30 10:39 -33.72609 150.12210 17524 ft 372 kts 264°
2026-04-30 10:40 -33.72910 150.09120 17901 ft 372 kts 264°
2026-04-30 10:40 -33.73180 150.06034 18287 ft 371 kts 264°
2026-04-30 10:40 -33.73432 150.02940 18673 ft 371 kts 264°
2026-04-30 10:40 -33.73696 149.99857 19015 ft 372 kts 264°
2026-04-30 10:41 -33.73967 149.96747 19368 ft 378 kts 264°
2026-04-30 10:41 -33.74237 149.93577 19714 ft 384 kts 264°
2026-04-30 10:41 -33.74510 149.90361 20074 ft 390 kts 264°
2026-04-30 10:41 -33.74783 149.87141 20439 ft 395 kts 264°
2026-04-30 10:42 -33.75064 149.83831 20811 ft 401 kts 264°
2026-04-30 10:42 -33.75348 149.80454 21178 ft 408 kts 264°
2026-04-30 10:42 -33.75634 149.77045 21568 ft 414 kts 264°
2026-04-30 10:42 -33.75924 149.73581 21955 ft 419 kts 264°
2026-04-30 10:43 -33.76218 149.70070 22335 ft 424 kts 264°
2026-04-30 10:43 -33.76513 149.66519 22730 ft 429 kts 264°
2026-04-30 10:43 -33.76809 149.62930 23130 ft 434 kts 264°
2026-04-30 10:43 -33.77110 149.59299 23531 ft 438 kts 264°
2026-04-30 10:44 -33.77411 149.55639 23934 ft 442 kts 264°
2026-04-30 10:44 -33.77713 149.51949 24276 ft 446 kts 264°
2026-04-30 10:44 -33.78017 149.48229 24614 ft 449 kts 264°
2026-04-30 10:44 -33.78322 149.44474 24958 ft 452 kts 264°
2026-04-30 10:45 -33.78628 149.40701 25309 ft 455 kts 264°
2026-04-30 10:45 -33.78935 149.36902 25662 ft 458 kts 264°
2026-04-30 10:45 -33.79238 149.33126 26016 ft 460 kts 264°
2026-04-30 10:45 -33.79545 149.29284 26376 ft 463 kts 264°
2026-04-30 10:46 -33.79854 149.25416 26737 ft 465 kts 264°
2026-04-30 10:46 -33.80162 149.21534 27109 ft 468 kts 264°
2026-04-30 10:46 -33.80472 149.17631 27485 ft 470 kts 264°
2026-04-30 10:46 -33.80780 149.13710 27867 ft 472 kts 264°
2026-04-30 10:47 -33.81088 149.09767 28254 ft 474 kts 264°
2026-04-30 10:47 -33.81400 149.05808 28648 ft 476 kts 264°
2026-04-30 10:47 -33.81709 149.01836 29029 ft 478 kts 264°
2026-04-30 10:47 -33.82016 148.97850 29439 ft 480 kts 264°
2026-04-30 10:48 -33.82326 148.93842 29843 ft 480 kts 264°
2026-04-30 10:48 -33.82632 148.89862 30249 ft 475 kts 264°
2026-04-30 10:48 -33.82928 148.85979 30613 ft 468 kts 264°
2026-04-30 10:48 -33.83224 148.82103 30955 ft 463 kts 264°
2026-04-30 10:49 -33.83516 148.78267 31298 ft 460 kts 264°
2026-04-30 10:49 -33.83804 148.74440 31646 ft 459 kts 264°
2026-04-30 10:49 -33.84092 148.70626 32016 ft 457 kts 264°
2026-04-30 10:49 -33.84378 148.66819 32343 ft 457 kts 264°
2026-04-30 10:50 -33.85410 148.59167 32352 ft 471 kts 256°
2026-04-30 10:50 -33.86892 148.51390 32356 ft 483 kts 259°
2026-04-30 10:51 -33.88100 148.43337 32346 ft 494 kts 258°
2026-04-30 10:51 -33.89522 148.35265 32350 ft 495 kts 259°
2026-04-30 10:52 -33.90798 148.27161 32348 ft 490 kts 258°
2026-04-30 10:52 -33.92150 148.19136 32339 ft 488 kts 259°
2026-04-30 10:53 -33.93434 148.11134 32338 ft 486 kts 259°
2026-04-30 10:53 -33.94742 148.03164 32331 ft 484 kts 259°
2026-04-30 10:54 -33.96020 147.95220 32326 ft 482 kts 259°
2026-04-30 10:54 -33.97300 147.87302 32318 ft 480 kts 259°
2026-04-30 10:55 -33.98564 147.79410 32309 ft 479 kts 259°
2026-04-30 10:55 -33.99815 147.71584 32308 ft 478 kts 259°
2026-04-30 10:56 -34.01067 147.63713 32302 ft 477 kts 259°
2026-04-30 10:56 -34.02310 147.55863 32308 ft 476 kts 259°
2026-04-30 10:57 -34.03546 147.48025 32301 ft 476 kts 260°
2026-04-30 10:57 -34.04777 147.40189 32303 ft 476 kts 260°
2026-04-30 10:58 -34.06006 147.32329 32296 ft 477 kts 260°
2026-04-30 10:58 -34.07225 147.24496 32301 ft 478 kts 260°
2026-04-30 10:59 -34.08450 147.16595 32301 ft 479 kts 260°
2026-04-30 10:59 -34.09670 147.08687 32304 ft 479 kts 260°
2026-04-30 11:00 -34.10886 147.00768 32305 ft 480 kts 261°
2026-04-30 11:00 -34.12091 146.92895 32307 ft 480 kts 261°
2026-04-30 11:01 -34.13299 146.84950 32310 ft 481 kts 261°
2026-04-30 11:01 -34.14504 146.77007 32313 ft 481 kts 261°
2026-04-30 11:02 -34.15704 146.69052 32309 ft 481 kts 261°
2026-04-30 11:02 -34.16888 146.61165 32306 ft 481 kts 261°
2026-04-30 11:03 -34.18078 146.53209 32314 ft 481 kts 261°
2026-04-30 11:04 -34.19853 146.41265 32309 ft 481 kts 261°
2026-04-30 11:04 -34.21023 146.33351 32315 ft 481 kts 262°
2026-04-30 11:05 -34.22194 146.25391 32313 ft 481 kts 262°
2026-04-30 11:05 -34.23359 146.17434 32303 ft 480 kts 262°
2026-04-30 11:06 -34.24516 146.09489 32311 ft 480 kts 262°
2026-04-30 11:06 -34.25603 146.01539 32317 ft 479 kts 264°
2026-04-30 11:07 -34.26532 145.93567 32310 ft 479 kts 263°
2026-04-30 11:07 -34.27550 145.85610 32309 ft 478 kts 264°
2026-04-30 11:08 -34.28339 145.78995 32310 ft 478 kts 264°
2026-04-30 11:08 -34.29322 145.71040 32309 ft 478 kts 264°
2026-04-30 11:09 -34.30280 145.63088 32309 ft 478 kts 264°
2026-04-30 11:09 -34.31244 145.55118 32313 ft 478 kts 264°
2026-04-30 11:10 -34.32199 145.47161 32313 ft 478 kts 264°
2026-04-30 11:10 -34.33149 145.39205 32314 ft 478 kts 264°
2026-04-30 11:11 -34.34085 145.31301 32312 ft 477 kts 264°
2026-04-30 11:11 -34.35023 145.23351 32318 ft 477 kts 265°
2026-04-30 11:12 -34.35958 145.15386 32316 ft 477 kts 265°
2026-04-30 11:12 -34.36886 145.07426 32322 ft 477 kts 265°
2026-04-30 11:13 -34.37809 144.99464 32331 ft 477 kts 265°
2026-04-30 11:13 -34.38727 144.91505 32331 ft 477 kts 265°
2026-04-30 11:14 -34.39640 144.83540 32334 ft 477 kts 265°
2026-04-30 11:14 -34.40546 144.75578 32338 ft 477 kts 265°
2026-04-30 11:15 -34.41445 144.67641 32331 ft 477 kts 265°
2026-04-30 11:15 -34.42339 144.59706 32334 ft 477 kts 265°
2026-04-30 11:16 -34.43230 144.51744 32332 ft 477 kts 265°
2026-04-30 11:16 -34.44117 144.43770 32338 ft 477 kts 265°
2026-04-30 11:17 -34.44998 144.35793 32335 ft 477 kts 265°
2026-04-30 11:17 -34.45875 144.27824 32337 ft 477 kts 265°
2026-04-30 11:18 -34.46747 144.19842 32341 ft 477 kts 265°
2026-04-30 11:18 -34.48044 144.07868 32347 ft 477 kts 265°
2026-04-30 11:19 -34.48898 143.99939 32348 ft 477 kts 265°
2026-04-30 11:19 -34.49751 143.91950 32344 ft 477 kts 265°
2026-04-30 11:20 -34.50599 143.83957 32350 ft 477 kts 266°
2026-04-30 11:20 -34.51443 143.75966 32348 ft 477 kts 266°
2026-04-30 11:21 -34.52281 143.67973 32360 ft 478 kts 266°
2026-04-30 11:21 -34.53108 143.60038 32357 ft 478 kts 266°
2026-04-30 11:22 -34.53937 143.52042 32356 ft 478 kts 266°
2026-04-30 11:22 -34.54758 143.44037 32361 ft 478 kts 266°
2026-04-30 11:23 -34.55577 143.36040 32358 ft 478 kts 266°
2026-04-30 11:24 -34.56794 143.24028 32363 ft 478 kts 266°
2026-04-30 11:24 -34.57598 143.16011 32365 ft 478 kts 267°
2026-04-30 11:25 -34.58796 143.03996 32361 ft 478 kts 267°
2026-04-30 11:26 -34.60376 142.87953 32362 ft 479 kts 267°
2026-04-30 11:26 -34.61159 142.79926 32365 ft 479 kts 267°
2026-04-30 11:27 -34.61930 142.71944 32372 ft 479 kts 268°
2026-04-30 11:27 -34.62704 142.63919 32369 ft 479 kts 268°
2026-04-30 11:28 -34.63783 142.51865 32376 ft 477 kts 270°
2026-04-30 11:29 -34.64133 142.43830 32371 ft 477 kts 271°
2026-04-30 11:29 -34.64869 142.31751 32372 ft 477 kts 271°
2026-04-30 11:30 -34.65537 142.19685 32383 ft 477 kts 270°
2026-04-30 11:31 -34.65960 142.11694 32383 ft 477 kts 271°
2026-04-30 11:31 -34.66402 142.03648 32388 ft 477 kts 270°
2026-04-30 11:32 -34.66828 141.95600 32381 ft 477 kts 270°
2026-04-30 11:32 -34.67254 141.87548 32382 ft 477 kts 270°
2026-04-30 11:33 -34.67881 141.75461 32392 ft 477 kts 269°
2026-04-30 11:33 -34.68292 141.67416 32393 ft 477 kts 270°
2026-04-30 11:34 -34.68698 141.59370 32392 ft 477 kts 270°
2026-04-30 11:34 -34.69097 141.51321 32387 ft 477 kts 270°
2026-04-30 11:35 -34.69490 141.43336 32390 ft 476 kts 270°
2026-04-30 11:35 -34.69879 141.35292 32390 ft 476 kts 270°
2026-04-30 11:36 -34.70264 141.27256 32403 ft 476 kts 269°
2026-04-30 11:36 -34.70642 141.19208 32403 ft 476 kts 269°
2026-04-30 11:37 -34.71012 141.11224 32397 ft 475 kts 269°
2026-04-30 11:37 -34.71382 141.03199 32399 ft 475 kts 269°
2026-04-30 11:38 -34.71742 140.95183 32397 ft 475 kts 269°
2026-04-30 11:38 -34.72098 140.87174 32396 ft 474 kts 269°
2026-04-30 11:39 -34.72450 140.79171 32408 ft 474 kts 269°
2026-04-30 11:39 -34.72792 140.71226 32405 ft 473 kts 269°
2026-04-30 11:40 -34.73132 140.63247 32398 ft 473 kts 269°
2026-04-30 11:40 -34.73465 140.55261 32398 ft 472 kts 269°
2026-04-30 11:41 -34.73794 140.47288 32396 ft 471 kts 269°
2026-04-30 11:41 -34.74115 140.39334 32399 ft 471 kts 269°
2026-04-30 11:42 -34.74430 140.31447 32392 ft 470 kts 269°
2026-04-30 11:42 -34.74742 140.23503 32391 ft 469 kts 269°
2026-04-30 11:43 -34.75045 140.15578 32391 ft 469 kts 268°
2026-04-30 11:43 -34.75347 140.07669 32387 ft 468 kts 269°
2026-04-30 11:44 -34.75640 139.99758 32380 ft 468 kts 268°
2026-04-30 11:44 -34.75928 139.91862 32381 ft 467 kts 268°
2026-04-30 11:45 -34.76213 139.83975 32380 ft 466 kts 268°
2026-04-30 11:45 -34.76489 139.76118 32377 ft 466 kts 268°
2026-04-30 11:46 -34.76624 139.72257 32371 ft 440 kts 268°
2026-04-30 11:46 -34.76748 139.68676 32298 ft 409 kts 268°
2026-04-30 11:46 -34.76864 139.65280 31452 ft 399 kts 268°
2026-04-30 11:46 -34.76976 139.61924 30449 ft 396 kts 268°